Wetbulb
57.75 57.59 57.52 57.75 57.08 56.91 57.10 56.69 56.15 55.91 56.03 56.18 56.43 56.85 57.82 58.30 57.28 53.13 45.67 52.34 54.75 63.75 62.90 50.09 49.49 48.45 48.15 46.76 47.64 44.32 39.05 34.24 37.47 38.64 42.88 45.18 44.93 47.61 50.14 63.19 62.38 65.06 63.84 63.72 67.78
57.07 57.27 57.15 57.19 57.29 57.29 56.49 56.12 56.61 56.43 55.98 56.53 56.21 56.71 57.74 58.00 51.35 49.52 57.49 62.56 64.32 65.64 50.77 48.61 45.32 46.84 44.99 44.15 44.72 42.20 37.02 39.15 43.25 42.60 43.76 45.42 43.97 46.21 47.55 51.10 58.74 60.41 62.31 66.09 67.00
56.67 56.66 56.72 56.98 57.12 57.26 56.47 56.13 56.28 56.41 56.90 56.85 56.83 56.69 57.47 56.89 46.13 52.39 65.52 64.70 65.66 66.31 51.12 49.50 46.34 44.79 44.13 42.43 42.91 39.66 39.31 42.07 44.20 45.73 44.64 45.32 45.94 46.56 45.53 43.97 47.89 57.61 59.34 63.62 63.99
56.46 56.33 56.18 56.34 56.50 56.78 56.79 56.83 57.10 57.24 57.03 56.57 55.54 55.76 57.34 52.00 40.31 52.37 66.69 68.68 67.23 59.38 49.50 47.44 44.42 41.18 42.30 42.30 41.29 41.50 43.56 43.11 44.87 45.00 43.17 44.10 45.90 46.36 46.26 47.59 49.92 51.93 60.65 62.90 62.81
55.90 55.87 55.64 55.68 56.05 56.22 56.60 56.78 56.75 56.53 56.72 56.00 55.40 56.22 52.52 44.01 47.11 54.76 66.77 67.63 57.61 51.48 49.14 46.24 42.63 42.26 41.67 40.22 41.79 39.88 43.44 44.05 44.99 44.08 43.10 43.83 44.75 45.44 45.84 49.02 49.76 61.26 62.15 61.66 62.06
55.40 55.22 55.16 55.25 55.57 56.24 56.55 56.55 56.43 56.03 57.22 56.58 55.53 56.44 48.00 39.61 49.92 59.51 55.98 51.51 50.69 48.43 48.38 45.51 44.82 47.17 42.69 40.73 39.97 42.31 42.48 43.38 43.35 43.49 42.23 42.11 44.13 45.38 47.50 49.20 50.31 60.94 60.84 60.40 61.15
55.28 54.91 54.73 55.04 55.26 55.79 56.45 56.37 55.92 55.99 57.98 58.10 56.27 55.46 48.41 44.98 54.74 57.37 52.27 49.45 50.01 49.46 46.72 46.77 47.33 46.10 43.99 41.81 42.13 42.83 41.08 41.98 41.99 41.81 42.90 43.22 43.01 42.59 47.24 47.77 47.95 54.55 57.95 61.57 62.59
54.91 54.73 54.52 54.71 55.08 55.59 55.89 56.01 55.60 56.06 57.39 58.06 57.65 52.84 43.95 52.19 53.55 52.89 53.20 53.19 53.07 48.93 49.30 50.04 49.34 45.33 42.55 43.79 44.13 40.55 38.10 35.36 40.91 43.48 44.39 42.99 38.46 44.89 46.86 44.88 46.76 47.70 47.02 50.51 61.30
54.77 54.28 54.40 54.44 54.87 55.18 55.32 55.03 55.65 57.72 57.80 58.14 52.46 50.70 48.73 59.12 54.35 55.41 53.12 50.51 52.79 52.14 51.11 53.95 47.90 43.74 44.05 39.03 37.21 37.52 34.23 35.12 39.71 42.74 43.21 41.62 40.78 46.07 47.64 45.49 45.79 46.46 53.46 58.12 62.48
54.57 54.07 54.14 54.58 54.85 54.85 54.34 54.65 57.84 57.17 56.32 56.74 55.94 47.21 49.81 51.66 54.66 54.87 52.02 52.35 51.54 49.84 48.26 47.40 42.80 40.54 37.94 36.83 31.72 34.17 34.31 35.41 36.82 41.33 42.14 39.96 40.71 44.68 47.17 45.39 45.65 45.45 56.97 60.82 61.93
54.40 53.97 53.95 54.22 54.48 54.16 51.33 48.40 45.66 45.12 52.05 46.33 48.93 51.90 53.91 56.63 54.66 52.27 52.66 52.25 51.20 47.59 40.79 43.43 39.91 36.01 39.33 39.75 40.27 38.93 37.08 36.86 41.20 44.57 40.55 40.69 40.68 44.39 45.61 43.46 43.31 46.64 55.32 59.23 61.03
53.60 53.97 54.09 53.87 53.99 53.85 48.72 48.80 48.60 48.08 44.13 50.38 52.15 53.83 55.67 54.74 48.95 50.43 51.79 47.29 46.49 41.67 42.95 41.23 37.04 43.25 43.65 43.14 41.42 39.92 37.32 37.97 41.08 43.56 40.61 41.83 41.70 43.86 44.56 44.53 44.37 51.00 55.05 56.74 56.74
53.36 53.38 53.52 53.59 53.04 49.94 48.25 50.36 51.03 48.46 41.91 47.87 51.19 50.81 49.22 51.50 48.44 49.08 50.25 47.29 44.10 40.73 40.26 38.49 43.00 46.27 44.49 42.97 41.76 39.31 37.81 38.89 39.63 44.02 42.52 40.69 38.86 41.03 44.42 47.06 49.90 52.11 56.06 56.93 57.29
53.07 53.09 53.20 52.58 48.51 45.77 49.32 51.71 50.92 50.15 40.45 46.70 47.36 48.67 48.77 48.54 47.05 52.67 51.57 48.79 44.19 41.73 41.76 40.22 44.31 44.46 42.77 41.88 42.15 36.83 43.47 42.80 41.97 38.99 34.87 39.88 34.33 37.39 41.37 44.85 48.71 48.98 52.30 57.88 60.21
52.82 53.07 53.03 52.16 44.59 47.38 50.94 50.48 49.76 50.31 31.71 48.11 46.10 50.15 47.78 44.94 46.36 49.22 51.92 48.66 43.83 44.03 42.80 41.24 42.06 41.93 41.24 43.08 45.83 41.65 45.74 43.03 42.54 38.51 34.60 35.83 33.15 35.86 44.50 43.88 46.12 49.03 56.23 57.12 60.69
52.57 52.68 52.48 49.44 45.29 49.12 50.55 48.43 50.62 41.47 33.91 44.41 46.29 44.23 43.48 45.16 46.56 48.76 48.60 49.18 47.59 43.32 42.80 42.25 45.48 45.01 44.18 46.19 46.46 46.87 43.04 40.57 37.56 34.71 31.01 34.89 34.02 33.15 41.46 43.96 46.37 49.15 54.79 57.26 58.32
52.22 52.21 50.37 50.50 44.17 48.84 48.78 48.40 39.80 35.82 45.41 41.67 42.82 44.60 41.63 42.28 44.67 46.10 44.12 41.41 38.88 35.61 35.71 41.14 41.63 44.65 46.61 42.28 44.47 42.28 36.77 29.81 29.05 28.80 29.15 37.51 34.37 38.16 45.78 46.61 47.54 48.69 50.46 54.12 57.54
50.81 50.41 50.21 51.46 47.45 49.92 47.80 44.08 33.67 41.25 40.59 44.45 43.76 43.57 41.43 43.49 42.79 44.27 42.28 39.09 42.68 40.45 35.97 33.86 33.53 40.99 45.59 42.14 38.27 38.40 36.11 30.39 25.37 26.65 29.95 37.58 34.10 40.19 47.29 48.46 49.02 49.82 50.39 50.95 50.84
49.29 47.34 49.11 51.59 51.88 47.97 45.53 36.97 36.18 39.47 42.95 41.92 42.59 40.16 40.12 42.97 42.18 41.32 40.02 39.53 40.82 40.08 35.50 33.27 34.74 43.76 44.95 44.50 42.44 38.12 33.41 38.04 33.01 33.42 30.25 32.87 41.20 46.31 49.25 47.75 47.89 48.14 49.08 49.60 50.31
43.79 46.51 48.72 51.64 51.07 48.84 42.51 39.57 40.04 44.53 44.59 43.53 37.79 40.67 36.14 39.10 39.05 38.62 38.63 42.26 41.65 43.26 41.27 37.93 31.56 40.67 43.40 44.52 43.67 40.24 42.58 33.05 32.34 24.09 24.47 31.24 32.96 37.48 45.38 44.85 45.95 46.37 47.44 48.98 50.83
44.80 45.28 49.94 49.96 50.41 44.88 38.25 39.91 43.35 46.16 45.71 42.50 39.88 38.60 38.94 38.08 38.58 37.20 39.10 42.03 43.85 42.37 41.52 38.04 34.26 34.74 39.02 36.93 36.77 38.00 36.79 37.82 34.78 34.48 30.54 26.67 30.93 46.33 46.27 47.53 45.37 46.46 48.21 48.98 49.77
42.69 41.55 50.44 49.34 42.39 38.30 37.31 41.72 45.64 45.22 46.58 44.76 42.66 41.62 39.71 39.24 37.58 37.85 38.87 41.48 44.11 42.86 38.06 37.56 33.18 28.41 32.34 39.83 45.12 41.34 38.61 36.91 29.09 27.40 34.52 32.76 31.85 46.37 48.31 48.74 48.62 48.05 49.43 50.80 52.04
40.68 41.70 50.55 48.26 36.63 36.87 41.15 44.13 45.65 44.72 43.76 42.80 41.79 42.89 41.91 37.85 33.77 39.30 40.82 45.34 45.42 42.26 37.99 36.72 30.18 26.02 29.30 33.21 37.31 36.48 40.61 39.80 36.05 33.84 32.58 31.44 31.21 46.90 47.89 49.20 49.94 47.18 48.21 48.71 50.78
43.00 38.60 41.71 42.33 39.84 37.94 37.85 40.46 42.08 46.80 44.48 44.08 41.85 42.46 39.39 36.95 37.83 36.71 38.93 44.43 45.88 45.10 47.90 41.05 31.14 30.57 26.37 30.33 33.70 33.48 36.92 39.77 36.19 30.50 30.60 33.26 35.77 40.78 44.98 45.60 48.40 48.90 48.56 48.49 50.93
41.30 38.08 39.67 35.31 37.50 38.97 37.82 40.57 41.01 40.98 43.17 42.92 39.81 40.96 38.61 33.78 35.38 35.35 39.01 40.37 43.84 44.96 40.71 35.93 30.07 32.26 34.45 36.55 37.91 37.12 36.50 37.28 36.73 36.62 33.18 35.51 35.93 40.44 43.78 45.23 48.40 49.18 49.72 49.63 50.72
40.33 39.30 40.41 38.24 39.37 38.29 38.53 38.18 40.71 42.52 40.94 40.04 38.23 41.37 38.91 35.20 37.23 35.19 36.85 35.69 36.63 38.46 35.32 35.56 31.03 33.91 33.51 37.87 37.53 34.56 36.00 36.93 36.98 37.27 37.20 38.24 37.22 43.87 44.11 47.70 48.27 48.21 48.79 49.03 48.45
41.17 41.39 40.29 38.22 37.15 36.30 37.33 40.24 41.87 41.41 42.60 43.55 41.68 38.86 37.72 40.01 41.63 40.91 40.39 39.42 39.35 36.90 34.00 32.93 30.69 27.89 25.96 34.38 33.54 28.02 33.51 36.04 36.85 37.94 36.68 30.74 35.50 40.37 43.68 46.60 47.43 47.49 44.91 44.28 44.47
MSLP
1018.89 1018.40 1017.85 1017.30 1016.84 1016.37 1015.88 1015.51 1015.18 1014.94 1014.70 1014.44 1014.21 1013.95 1013.64 1013.30 1012.81 1012.66 1011.63 1009.30 1009.15 1009.05 1009.20 1009.13 1009.19 1009.38 1009.57 1009.84 1010.04 1010.67 1011.95 1012.67 1011.87 1010.63 1009.22 1007.57 1007.65 1006.70 1005.79 1005.71 1005.45 1005.60 1005.81 1006.22 1006.37
1018.93 1018.34 1017.78 1017.19 1016.64 1016.16 1015.73 1015.36 1014.97 1014.66 1014.48 1014.22 1014.06 1013.87 1013.59 1013.36 1013.02 1011.67 1008.84 1008.70 1008.79 1009.14 1009.24 1009.34 1009.58 1009.52 1010.00 1010.04 1010.20 1010.77 1011.82 1011.60 1010.83 1009.80 1009.03 1007.81 1007.51 1006.82 1006.27 1006.03 1005.89 1005.69 1005.76 1006.30 1006.56
1018.89 1018.34 1017.72 1017.12 1016.50 1015.95 1015.55 1015.12 1014.70 1014.39 1014.14 1013.96 1013.82 1013.72 1013.52 1013.38 1012.54 1009.42 1008.14 1008.43 1008.71 1008.99 1009.15 1009.31 1009.46 1009.61 1010.11 1010.18 1010.20 1010.57 1010.90 1010.44 1009.93 1009.40 1009.08 1008.09 1007.10 1006.82 1006.37 1006.33 1005.89 1005.78 1005.90 1006.49 1006.86
1018.85 1018.25 1017.68 1017.06 1016.44 1015.88 1015.39 1014.88 1014.46 1014.14 1013.88 1013.71 1013.69 1013.59 1013.33 1013.22 1011.33 1008.57 1008.21 1007.99 1008.52 1009.03 1009.23 1009.37 1009.62 1010.06 1010.39 1010.39 1010.15 1010.34 1009.92 1009.89 1009.35 1008.86 1008.90 1008.29 1007.28 1006.41 1006.17 1005.81 1005.29 1005.25 1005.75 1006.33 1006.83
1018.71 1018.12 1017.52 1016.89 1016.28 1015.73 1015.23 1014.72 1014.27 1013.93 1013.67 1013.46 1013.38 1013.31 1013.18 1012.31 1010.09 1008.50 1008.49 1008.49 1008.85 1009.17 1009.35 1009.61 1009.79 1010.14 1010.34 1010.30 1010.23 1010.19 1009.75 1009.42 1009.04 1008.85 1008.53 1007.95 1007.36 1006.72 1005.95 1005.30 1005.23 1005.12 1005.82 1006.48 1007.02
1018.46 1017.88 1017.27 1016.59 1015.92 1015.31 1014.87 1014.47 1014.09 1013.74 1013.41 1013.25 1013.21 1013.24 1012.81 1011.01 1008.61 1008.60 1008.67 1009.02 1008.96 1009.19 1009.41 1009.64 1009.76 1009.81 1010.12 1010.21 1010.22 1009.91 1009.68 1009.32 1008.92 1008.55 1008.07 1007.87 1007.15 1006.71 1005.99 1005.24 1005.44 1005.43 1005.50 1006.51 1007.21
1018.26 1017.67 1017.00 1016.35 1015.73 1015.08 1014.50 1014.10 1013.82 1013.60 1013.21 1013.05 1013.17 1013.11 1012.22 1009.80 1008.62 1008.64 1008.86 1008.86 1008.92 1008.95 1009.31 1009.50 1009.38 1009.60 1009.94 1010.09 1010.04 1009.93 1009.98 1009.33 1008.81 1008.60 1008.18 1007.60 1007.10 1006.68 1005.77 1005.66 1005.63 1005.74 1005.83 1005.87 1007.28
1017.97 1017.34 1016.70 1015.98 1015.34 1014.68 1014.11 1013.73 1013.48 1013.38 1013.17 1013.14 1013.19 1012.89 1011.22 1008.77 1008.66 1008.70 1008.91 1008.68 1008.54 1008.81 1008.80 1008.84 1009.21 1009.73 1010.08 1010.25 1010.41 1010.64 1010.67 1010.51 1009.31 1008.78 1007.85 1007.74 1007.56 1006.52 1005.77 1006.00 1005.89 1005.56 1006.13 1006.08 1006.87
1017.75 1017.02 1016.39 1015.75 1015.06 1014.42 1013.85 1013.42 1013.09 1013.16 1013.21 1013.25 1013.17 1012.54 1010.15 1008.29 1008.44 1007.66 1008.06 1008.39 1008.29 1008.50 1008.67 1008.79 1009.33 1010.36 1010.67 1011.46 1011.89 1012.18 1011.89 1011.38 1010.21 1009.01 1008.57 1008.39 1007.93 1006.54 1005.73 1006.02 1005.74 1005.43 1006.06 1006.35 1006.91
1017.61 1016.77 1016.09 1015.38 1014.60 1014.25 1013.64 1013.24 1013.11 1013.21 1013.34 1013.22 1012.75 1012.34 1009.76 1008.68 1007.84 1007.58 1007.77 1007.81 1008.19 1008.62 1009.07 1009.43 1010.65 1011.39 1012.25 1012.54 1013.09 1012.92 1012.61 1011.91 1011.19 1009.63 1009.02 1008.78 1008.14 1006.92 1005.80 1005.85 1005.37 1005.89 1006.29 1006.51 1006.65
1017.50 1016.65 1015.80 1015.12 1014.42 1013.91 1013.52 1013.42 1013.60 1013.17 1012.77 1012.12 1011.74 1011.07 1009.67 1008.47 1007.68 1007.68 1007.64 1007.97 1008.51 1009.23 1010.15 1010.77 1011.70 1012.19 1012.34 1012.54 1012.57 1012.61 1012.48 1012.14 1010.74 1009.42 1009.57 1008.69 1008.39 1007.28 1006.31 1005.78 1005.77 1006.43 1006.71 1006.73 1006.43
1017.43 1016.59 1015.69 1014.74 1014.14 1013.69 1013.43 1013.26 1013.02 1012.79 1012.11 1010.86 1010.64 1010.16 1009.00 1008.66 1008.36 1007.86 1007.82 1008.57 1009.14 1010.07 1010.69 1011.51 1011.87 1011.53 1011.76 1011.88 1012.12 1012.20 1012.17 1011.58 1010.53 1009.28 1009.67 1008.88 1008.39 1007.49 1006.88 1006.63 1006.56 1006.37 1006.90 1006.98 1006.90
1017.33 1016.50 1015.53 1014.52 1013.75 1013.43 1013.36 1012.54 1011.95 1011.87 1012.11 1010.41 1009.57 1008.92 1008.11 1008.32 1008.18 1008.02 1008.21 1008.74 1009.51 1010.32 1011.00 1011.69 1011.35 1011.15 1011.42 1011.41 1011.60 1011.70 1011.84 1011.40 1010.93 1009.76 1009.27 1009.16 1008.82 1008.40 1007.93 1007.90 1007.74 1008.08 1007.73 1007.63 1007.74
1017.11 1016.40 1015.53 1014.40 1013.65 1013.89 1012.92 1012.05 1011.86 1011.63 1011.85 1010.18 1008.89 1007.70 1007.60 1007.78 1007.95 1007.68 1007.98 1008.75 1009.68 1010.38 1011.07 1011.46 1011.08 1011.20 1011.22 1011.40 1011.48 1011.60 1011.20 1011.14 1010.92 1010.85 1010.50 1009.98 1010.02 1010.17 1010.29 1010.29 1010.34 1010.27 1010.12 1010.09 1009.49
1016.79 1016.11 1015.52 1015.18 1014.77 1013.73 1012.45 1011.85 1011.43 1011.59 1011.35 1009.55 1008.25 1007.30 1007.65 1008.21 1008.40 1007.99 1008.13 1008.66 1009.72 1010.56 1011.39 1011.58 1011.33 1011.27 1011.49 1011.77 1011.46 1011.91 1011.51 1011.30 1011.05 1011.37 1011.33 1011.32 1012.01 1011.45 1011.93 1011.62 1012.76 1011.89 1011.44 1011.16 1010.83
1016.13 1015.59 1015.17 1014.99 1014.84 1012.91 1012.12 1011.79 1011.63 1012.04 1010.77 1009.45 1008.56 1008.40 1008.63 1008.83 1008.85 1008.71 1008.82 1009.25 1010.30 1011.20 1011.82 1012.07 1011.85 1012.05 1012.06 1011.86 1012.06 1012.20 1011.95 1011.99 1012.28 1012.62 1012.90 1013.33 1013.11 1012.86 1013.92 1014.54 1014.38 1013.70 1012.54 1012.37 1011.98
1015.44 1014.63 1014.74 1014.35 1013.61 1012.56 1012.04 1012.20 1012.57 1011.88 1010.90 1010.72 1010.05 1009.75 1010.01 1010.24 1010.17 1010.08 1011.17 1011.91 1012.41 1012.84 1013.65 1013.22 1013.01 1012.80 1012.52 1012.50 1012.48 1012.68 1013.57 1014.25 1014.22 1014.50 1014.55 1014.33 1014.31 1014.74 1015.26 1015.70 1015.61 1015.02 1013.77 1013.43 1013.22
1014.88 1014.14 1014.07 1013.45 1012.96 1012.64 1012.74 1013.20 1012.96 1012.29 1011.70 1011.24 1010.94 1010.81 1011.33 1011.68 1011.88 1011.77 1012.26 1013.26 1013.50 1013.84 1014.76 1014.85 1014.15 1013.76 1013.67 1013.92 1014.12 1014.31 1014.99 1016.35 1016.63 1016.71 1016.26 1015.52 1015.57 1015.75 1016.24 1016.70 1016.28 1015.74 1014.75 1014.63 1014.43
1014.70 1014.18 1013.88 1012.97 1012.69 1012.87 1013.56 1013.98 1013.60 1012.79 1012.29 1012.04 1011.79 1012.22 1012.76 1012.79 1012.85 1012.99 1013.45 1014.05 1014.42 1014.59 1015.18 1015.65 1015.20 1014.42 1014.38 1014.38 1014.69 1014.97 1015.93 1017.04 1017.69 1017.97 1017.71 1016.75 1016.59 1016.33 1016.47 1017.06 1017.10 1016.08 1015.20 1015.78 1015.33
1016.42 1015.50 1014.22 1012.94 1012.71 1013.29 1014.11 1014.52 1013.70 1012.80 1012.45 1012.55 1013.01 1013.44 1013.90 1014.09 1014.12 1014.07 1014.07 1014.49 1014.77 1014.87 1015.13 1016.19 1016.37 1015.95 1015.51 1015.17 1015.43 1015.95 1016.89 1017.87 1019.00 1019.64 1019.30 1017.95 1017.20 1016.38 1016.46 1017.05 1017.43 1016.24 1015.97 1016.67 1015.38
1016.73 1015.75 1013.84 1013.15 1013.15 1014.30 1015.35 1014.99 1013.90 1013.03 1012.67 1013.08 1013.57 1014.02 1014.51 1014.83 1014.86 1014.92 1014.84 1014.83 1014.78 1015.33 1015.66 1016.52 1017.25 1017.37 1016.80 1016.97 1017.11 1017.19 1017.86 1019.06 1020.02 1020.36 1020.01 1019.21 1017.80 1017.43 1017.10 1017.01 1017.05 1016.69 1016.77 1016.68 1015.70
1018.21 1016.93 1013.92 1013.27 1014.79 1016.18 1016.36 1015.50 1014.34 1013.53 1013.19 1013.38 1013.93 1014.45 1014.89 1015.19 1015.30 1015.31 1015.30 1015.11 1015.00 1015.41 1016.35 1017.18 1018.18 1018.65 1018.51 1018.07 1017.90 1018.13 1018.81 1019.53 1020.53 1020.93 1020.62 1019.87 1017.90 1017.02 1016.47 1017.29 1016.52 1016.53 1016.57 1015.84 1015.59
1020.23 1018.59 1014.92 1014.37 1016.79 1017.64 1016.82 1015.83 1014.90 1014.22 1013.93 1013.97 1014.39 1014.71 1015.11 1015.53 1015.85 1015.72 1015.79 1015.75 1015.62 1015.98 1016.58 1017.34 1018.76 1019.39 1019.18 1019.01 1018.57 1018.75 1019.09 1019.65 1020.34 1020.59 1020.26 1019.75 1017.68 1016.77 1016.54 1016.42 1017.23 1017.15 1017.12 1016.87 1016.67
1020.91 1020.21 1018.35 1017.93 1018.65 1018.67 1018.21 1016.82 1015.66 1014.66 1014.38 1014.44 1014.78 1015.12 1015.63 1015.99 1016.21 1016.37 1016.46 1016.45 1016.34 1016.60 1017.00 1017.58 1019.13 1019.68 1019.79 1019.34 1019.13 1019.21 1018.96 1019.14 1019.65 1020.10 1019.30 1018.36 1017.01 1016.17 1016.07 1016.21 1016.47 1016.99 1017.12 1017.19 1017.07
1021.82 1022.18 1021.81 1020.91 1020.03 1019.76 1019.10 1017.83 1016.80 1015.84 1015.12 1014.99 1015.63 1015.88 1016.23 1016.72 1016.97 1017.17 1017.35 1017.31 1017.15 1017.41 1017.84 1018.56 1019.61 1019.83 1019.59 1019.34 1019.03 1018.69 1018.53 1018.40 1018.65 1018.15 1018.19 1016.87 1016.51 1015.22 1014.68 1015.18 1015.54 1016.07 1016.52 1017.06 1017.33
1023.15 1023.28 1022.58 1021.94 1021.14 1020.36 1019.49 1018.61 1017.81 1016.71 1016.02 1015.74 1015.88 1016.24 1016.61 1017.10 1017.26 1017.68 1017.97 1018.10 1018.03 1018.26 1018.72 1019.54 1020.06 1020.31 1020.13 1019.38 1018.85 1018.33 1017.68 1017.21 1016.93 1016.81 1016.74 1016.04 1015.15 1013.78 1013.81 1014.31 1015.42 1016.04 1016.42 1016.94 1017.08
1023.62 1023.52 1023.42 1022.51 1021.70 1021.02 1020.31 1019.56 1018.50 1017.92 1016.69 1016.26 1016.33 1016.69 1017.16 1017.22 1017.35 1017.61 1017.98 1018.09 1018.16 1018.64 1019.56 1020.11 1020.60 1021.29 1020.83 1019.77 1019.13 1018.06 1016.82 1016.40 1016.32 1016.28 1016.30 1015.79 1014.88 1014.11 1014.57 1014.79 1015.13 1015.71 1016.02 1016.35 1016.64
Wind_Speed
19 19 19 18 18 17 16 15 14 13 13 13 12 12 13 13 13 2 6 9 3 4 2 2 2 2 2 1 2 4 5 1 4 2 8 6 8 5 4 4 1 2 2 0 11
19 19 19 19 19 17 17 16 14 12 11 11 11 11 12 11 3 5 11 6 10 5 2 2 3 3 3 1 1 6 4 7 7 4 6 9 3 6 5 4 5 4 2 5 12
19 20 20 20 19 18 17 15 14 13 11 10 10 10 10 7 3 5 3 10 9 9 2 3 3 3 3 2 1 3 5 5 5 8 4 7 10 2 2 0 4 6 4 6 9
20 20 20 20 19 18 17 16 14 12 10 8 8 8 8 1 3 1 4 1 11 7 2 3 3 4 2 1 1 1 5 3 6 2 3 5 5 5 5 8 5 8 5 5 9
20 21 21 20 20 18 17 16 14 12 9 7 5 5 2 2 7 1 5 8 7 5 4 3 3 4 1 2 2 3 5 4 5 8 7 2 9 8 6 5 6 2 10 7 8
21 21 21 22 21 20 17 14 12 12 9 5 3 2 0 2 2 5 7 3 5 5 5 5 5 6 1 2 3 3 5 6 6 6 4 3 5 7 8 7 6 6 9 10 7
21 21 22 21 21 20 18 15 12 10 6 3 4 2 2 8 3 5 6 4 5 5 4 5 4 2 1 5 2 2 6 6 3 2 6 3 8 4 8 2 8 8 8 8 11
22 22 22 23 22 21 20 17 14 7 2 5 5 1 5 4 1 4 4 5 4 4 2 4 5 2 1 2 9 5 6 6 6 6 5 4 9 12 12 5 12 10 7 9 9
23 23 22 23 22 21 19 19 3 2 5 7 0 2 6 7 2 4 8 3 4 3 3 1 3 3 7 4 6 8 2 4 11 5 3 2 10 14 11 7 13 10 9 9 7
24 24 23 23 23 19 20 3 7 6 2 3 3 3 3 4 4 1 5 3 3 4 4 7 7 4 5 6 3 4 4 4 6 7 6 7 10 12 14 10 15 3 6 7 8
24 25 25 24 23 20 6 3 5 4 1 4 4 3 6 6 4 2 1 4 5 8 3 4 6 3 7 6 5 3 3 5 13 16 3 10 6 14 11 6 7 7 8 8 9
25 25 25 25 24 19 1 4 1 4 7 5 5 6 7 3 3 1 2 4 4 1 2 7 3 8 4 5 5 5 4 10 9 12 4 9 11 7 5 5 4 9 10 9 5
24 25 25 25 26 2 1 1 5 3 2 8 5 4 5 7 4 5 5 3 3 1 2 4 8 4 2 6 3 3 4 6 7 11 3 4 8 6 5 10 14 9 3 6 6
24 24 24 29 3 4 4 1 5 3 5 4 3 4 2 2 2 5 6 6 1 4 3 4 4 2 7 4 1 2 5 7 6 3 6 3 10 6 8 5 14 13 8 8 6
25 23 20 11 3 0 4 8 6 6 4 2 1 1 3 3 3 3 2 3 3 3 6 6 5 7 6 5 4 3 9 7 5 5 3 2 2 6 8 7 14 12 9 10 11
28 23 15 2 1 7 8 7 5 6 1 2 3 4 4 5 7 2 4 9 4 4 4 4 3 6 4 3 3 9 8 5 5 2 4 6 3 5 5 7 8 10 11 10 12
30 25 6 1 2 6 5 5 6 4 4 5 3 4 3 5 8 6 5 8 3 5 6 7 3 4 5 5 8 12 9 6 6 5 6 6 3 2 6 6 6 6 11 12 10
32 17 4 4 2 6 4 6 3 3 3 3 4 4 6 7 4 7 4 3 7 5 3 3 6 5 7 4 4 5 4 5 6 2 6 6 4 4 7 5 7 8 13 16 15
21 4 3 4 3 3 7 6 2 2 2 4 4 6 5 5 4 4 4 3 2 2 6 3 5 5 6 3 1 5 2 1 1 3 3 4 2 4 6 4 6 12 16 14 13
4 5 4 8 2 6 7 2 0 1 2 5 3 4 4 5 5 5 2 1 3 2 3 4 3 2 5 5 4 3 2 2 4 1 5 5 4 4 10 7 4 11 13 8 12
4 5 4 8 4 7 4 2 1 3 2 3 2 2 2 2 1 3 3 0 3 2 3 4 3 5 3 4 4 5 3 6 3 2 2 3 5 7 7 9 8 10 10 8 12
4 4 5 5 6 2 2 5 6 1 5 3 4 3 2 2 1 1 1 3 1 2 2 1 5 1 2 5 3 3 2 3 5 4 3 3 7 3 4 4 10 5 8 10 16
3 4 6 5 4 4 6 4 4 6 3 1 2 1 1 2 2 1 3 5 7 2 4 4 2 3 7 6 4 2 3 3 3 2 6 3 6 5 4 8 6 7 7 5 8
3 6 6 6 1 3 5 4 6 5 2 2 2 4 3 1 1 2 3 4 4 3 7 5 3 8 7 7 4 5 4 6 7 4 4 7 7 7 5 6 10 14 11 9 5
4 1 2 5 4 4 2 3 5 5 3 4 3 3 3 0 3 2 2 4 3 6 3 5 4 4 5 6 6 8 8 7 9 12 8 12 10 11 12 16 15 13 12 12 9
3 4 5 4 4 4 4 4 3 7 2 3 3 5 3 6 7 6 3 2 5 2 3 2 3 2 4 7 8 8 12 12 14 12 10 14 15 16 4 11 10 12 11 11 12
2 2 3 4 4 3 0 4 6 9 3 1 3 4 4 6 5 6 7 6 7 7 5 4 5 3 5 3 6 7 3 6 1 2 3 5 5 2 3 9 12 9 7 7 7
Wind_Direction
346 343 341 339 339 336 332 328 322 317 315 315 317 318 321 325 319 119 251 219 186 160 155 353 57 20 77 45 130 121 60 131 237 245 275 291 29 296 266 144 299 228 226 348 111
345 343 341 340 337 335 335 330 321 312 307 307 311 315 321 330 306 254 247 225 223 148 140 109 57 45 24 323 68 96 121 214 203 241 285 305 23 340 25 19 310 303 100 106 122
345 342 341 340 337 334 334 330 324 317 305 302 307 314 317 323 300 254 149 220 213 186 107 116 118 75 41 352 214 150 187 214 233 247 250 281 310 194 175 295 265 263 226 157 133
343 343 341 339 336 331 329 327 323 316 312 310 310 311 314 288 149 319 19 303 175 165 158 80 70 75 70 253 311 312 244 216 277 300 326 268 283 276 207 209 210 254 131 163 166
342 342 341 338 334 329 326 324 322 318 316 312 307 301 283 356 255 313 77 108 114 124 139 126 118 124 182 233 325 199 279 295 273 287 240 266 248 236 250 228 236 239 135 206 175
340 341 340 338 335 329 325 318 314 314 311 293 267 287 353 344 254 145 123 130 147 130 161 141 179 199 205 251 149 217 264 283 279 281 255 228 266 137 266 268 170 170 229 172 164
338 337 339 336 333 328 322 319 312 309 322 246 181 236 71 230 35 159 154 179 181 167 150 200 187 110 108 314 245 280 337 343 322 26 305 280 335 251 243 295 271 203 225 230 152
337 336 336 336 332 328 325 320 311 291 55 130 167 292 248 244 187 210 155 287 208 217 249 153 161 162 185 336 6 16 49 10 291 329 308 88 276 280 276 247 251 246 199 245 167
336 335 334 333 330 329 325 319 307 172 128 145 311 50 297 310 248 240 151 223 168 196 263 185 104 81 24 54 10 6 283 321 324 300 339 29 291 284 291 239 250 246 162 183 158
336 333 333 331 328 331 325 279 124 112 170 222 249 0 303 303 263 286 170 136 54 83 23 45 45 50 39 58 255 288 334 301 272 280 340 306 266 289 289 242 232 172 155 166 167
335 333 331 330 328 329 341 77 17 354 142 204 227 239 269 290 298 13 84 69 52 49 51 10 59 280 254 200 208 245 236 256 277 281 260 273 276 287 308 297 239 173 166 190 175
333 332 330 327 325 323 214 64 250 256 316 244 232 259 261 137 306 333 69 84 83 56 59 14 306 259 240 235 227 230 260 279 283 274 149 287 287 284 301 303 265 169 161 177 152
331 332 329 325 319 351 336 199 329 92 103 299 216 216 242 136 213 222 128 127 120 157 125 153 247 353 294 307 296 267 215 264 250 305 253 267 304 330 343 32 19 2 13 135 155
331 332 330 328 22 322 289 355 308 132 70 284 284 276 116 125 317 188 178 135 112 205 183 216 286 14 332 313 5 299 294 264 265 351 288 120 285 308 350 353 12 358 12 11 29
330 330 328 325 280 330 313 331 320 61 66 189 223 315 6 113 252 241 127 67 180 195 89 263 304 348 38 330 324 269 315 284 259 244 302 65 63 254 352 333 354 332 56 45 58
330 328 331 119 219 250 303 319 54 46 128 56 43 5 26 9 350 22 66 40 56 74 16 268 360 49 344 324 94 303 341 8 25 90 271 336 189 272 346 332 331 342 51 59 79
331 327 305 226 215 310 325 41 41 113 337 344 343 359 56 338 359 29 67 35 57 44 2 342 3 328 32 24 353 7 34 347 330 356 245 333 17 286 354 354 347 339 49 49 57
330 326 186 227 272 353 42 53 93 56 27 343 353 4 76 15 12 3 115 77 17 52 80 57 328 29 352 65 278 283 134 163 274 270 272 340 320 342 89 70 56 50 69 55 56
327 334 310 298 195 91 67 61 200 31 340 3 6 51 0 358 40 46 50 113 44 9 113 64 280 337 54 335 340 307 51 204 137 314 351 237 138 202 160 114 85 71 66 60 51
5 343 329 305 146 58 70 197 240 5 43 57 72 58 33 345 37 32 8 292 136 32 136 195 305 25 300 15 17 57 115 19 12 316 288 304 286 296 181 161 138 75 71 57 56
31 37 268 334 55 44 97 274 13 3 86 83 130 28 62 31 16 338 360 317 181 135 84 125 122 292 24 360 310 350 20 54 98 161 230 293 271 6 289 169 195 124 100 82 51
4 41 308 4 50 20 39 313 292 187 36 47 96 87 106 43 359 319 354 327 197 124 97 56 136 109 252 298 10 94 134 125 121 251 257 292 261 159 101 188 254 194 160 166 121
32 278 317 57 70 349 317 318 15 14 3 47 116 129 173 187 321 227 43 8 6 97 165 180 29 28 351 346 355 9 201 166 102 66 222 227 264 190 157 134 232 226 216 193 139
38 355 331 33 43 67 356 296 324 322 269 107 136 76 52 313 261 283 1 3 6 53 68 91 149 160 196 214 179 286 237 214 169 177 208 223 281 283 192 187 178 208 207 202 173
30 326 184 314 338 344 277 293 320 323 37 30 60 111 144 267 345 251 345 333 20 5 63 96 200 189 241 239 240 250 271 248 199 230 216 251 229 251 221 197 205 196 196 203 207
50 18 352 291 312 332 1 351 323 327 237 257 174 167 183 173 196 208 201 212 229 20 89 31 259 192 260 256 259 272 274 265 264 243 241 248 258 249 268 185 166 190 192 188 196
320 360 102 291 338 18 231 341 310 346 338 232 155 139 163 224 200 211 206 208 208 181 172 172 156 103 265 273 313 294 232 258 167 35 291 246 266 134 99 153 169 161 142 141 126